Location: Zarzalejo
(40.5487°N, 4.1819°W)
Time: 14:40:19
(UTC+00:00)

Daily predictions for brighter satellites

Satellite Brightness Start Highest point End
(mag) Time Altitude Azimuth Time Altitude Azimuth Time Altitude Azimuth
Cosmos 371 Rocket 3.7 19:43:34 10° NNW 19:48:22 67° WSW 19:53:07 10° S
Okean 1 Rocket 4.4 19:47:55 10° SE 19:51:10 21° E 19:54:27 10° NE
Cosmos 1980 Rocket 4.2 19:48:58 10° NNE 19:51:56 14° NE 19:54:54 10° E
ARIANE 6 FM1 Upper Stage 2.5 19:49:33 10° NW 19:53:32 87° NE 19:57:31 10° SE
Cosmos 2084 4.1 19:50:14 10° SW 19:54:18 58° NW 19:58:24 10° NNE
SL-24 R/B 4.1 19:51:55 10° NNE 19:56:25 67° E 20:00:40 10° S
CZ-4 R/B 1.5 19:54:15 10° SSE 19:57:44 46° ENE 20:01:14 10° N
CZ-4B R/B 3.9 19:56:51 10° SSE 20:00:45 61° ENE 20:04:44 10° N
ASTEX 1 3.6 19:58:55 10° SSE 20:03:43 54° E 20:08:33 10° N
SPOT 5 2.7 19:59:39 10° S 20:03:57 83° WSW 20:08:17 10° NNW
GEOS 3 Rocket 3.9 19:59:46 10° SSE 20:05:02 74° SW 20:10:25 10° NW
CZ-4B DEB 4.4 19:59:59 10° SSE 20:05:20 56° ENE 20:10:44 10° N
Cosmos 1862 3.8 20:01:52 10° NNW 20:05:21 54° W 20:08:48 10° S
Cosmos 2056 Rocket 3.6 20:01:01 10° SSW 20:06:26 90° ESE 20:11:51 10° NNE
Cosmos 1833 Rocket 2.6 20:01:48 10° SSW 20:07:23 76° ESE 20:12:59 10° NNE
CZ-4B R/B 3.8 20:02:28 10° SE 20:07:44 42° ENE 20:13:01 10° N
CSL-04 Rocket 3.8 20:02:47 10° SSE 20:08:19 88° WSW 20:13:49 10° NNW
Cosmos 1624 Rocket 4.0 20:04:15 10° SSW 20:09:25 88° WNW 20:14:37 10° NNE
Terra 2.3 20:07:29 10° SE 20:11:54 43° ENE 20:16:21 10° N
Sich 1 Rocket 4.3 20:10:02 10° SSE 20:13:53 31° E 20:17:45 10° NNE
ATLAS 5 CENTAUR R/B 4.2 20:16:04 10° WNW 20:19:25 19° WSW 20:23:13 10° SSW
Cosmos 2058 3.9 20:16:49 10° NNW 20:20:31 43° W 20:24:12 10° SSW
Resurs 01 Rocket 4.4 20:19:31 10° SW 20:22:08 16° W 20:24:46 10° NW
SJ 16-02 2.6 20:18:13 10° NNW 20:22:11 39° WSW 20:26:07 10° S
MetOp-B 4.3 20:17:15 10° SSE 20:22:26 57° ENE 20:27:41 10° N
PAYLOAD B 4.2 20:18:36 10° SSE 20:24:03 71° ENE 20:29:34 10° N
USA 229 DEB 4.2 20:19:42 10° NNW 20:27:18 65° NE 20:34:05 16° SE
USA 229 4.2 20:19:45 10° NNW 20:27:21 64° NE 20:34:07 16° SE
Cosmos 44 Rocket 3.6 20:23:16 10° S 20:28:01 45° ESE 20:32:54 10° NE
Cosmos 1743 4.3 20:27:08 10° NE 20:28:24 12° ENE 20:28:34 12° ENE
ISS -3.5 20:26:04 10° SSW 20:29:16 45° SE 20:32:28 10° ENE
Cosmos 1459 Rocket 4.1 20:23:29 10° SSE 20:29:35 56° E 20:35:36 10° NNE
SKYMED 3 4.2 20:29:00 10° NNE 20:32:55 65° ESE 20:36:50 10° S
Cosmos 2100 Rocket 4.0 20:27:00 10° S 20:33:06 66° E 20:39:19 10° NNE
IRAS Rocket 4.5 20:31:01 10° S 20:36:27 69° WSW 20:41:56 10° NNW
ATLAS 2AS CENTAUR R/B 3.8 20:29:51 10° WSW 20:36:32 48° NW 20:43:08 10° NNE
ADEOS 3.6 20:32:34 14° SSE 20:36:58 68° ENE 20:42:10 10° N
Spot 2 Rocket 3.9 20:36:58 20° SE 20:40:08 44° ENE 20:44:54 10° N
Cosmos 2151 Rocket 3.9 20:37:19 10° SSW 20:41:39 68° W 20:46:00 10° N
BREEZE-M DEB (TANK) 3.9 20:38:58 10° NW 20:41:51 46° NNE 20:47:10 15° E
SL-4 R/B 2.3 20:38:51 10° NW 20:42:37 52° NNE 20:44:44 24° E
Cosmos 2082 Rocket 3.1 20:40:45 19° SE 20:43:38 28° ESE 20:48:25 10° NE
Okean 2 Rocket 3.1 20:39:33 10° S 20:44:00 88° W 20:48:31 10° N
Cosmos 1536 Rocket 3.8 20:49:58 10° NNW 20:54:17 67° W 20:57:49 15° S
Cosmos 1607 4.1 20:48:34 10° S 20:54:20 46° ESE 21:00:14 10° NE
Cosmos 2233 Rocket 4.5 20:51:19 22° SE 20:54:47 40° E 21:00:28 10° NNE
IRS-1A Rocket 4.3 20:51:01 18° SSE 20:55:25 84° ENE 21:01:19 10° NNW
Cosmos 2228 3.7 20:55:35 29° ESE 20:56:12 31° E 20:59:51 10° NNE
Timation 1 Rocket 4.4 20:51:48 10° SSW 20:57:47 85° WNW 21:03:50 10° NNE
USA 186 1.9 20:58:27 39° ENE 20:58:27 39° ENE 21:00:45 10° N
Cosmos 292 Rocket 3.7 20:54:20 10° NNW 20:59:07 82° ENE 21:01:33 29° SSE
Okean O Rocket 1.6 20:57:28 30° SE 20:59:24 62° ENE 21:03:39 10° N
DELTA 2 R/B (1) 3.9 20:55:13 10° SW 21:00:25 42° SSE 21:03:11 24° E
ERS-1 Rocket 3.7 20:59:15 11° S 21:03:57 49° W 21:08:49 10° NNW
CZ-4C R/B 1.8 21:01:26 10° SW 21:05:22 70° NW 21:10:19 10° NNE
Cosmos 1725 Rocket 3.9 21:00:02 13° S 21:05:44 74° E 21:11:58 10° N
Cosmos 1452 Rocket 3.4 21:01:01 10° SSW 21:06:14 81° ESE 21:11:28 10° NNE
Tsikada Rocket 4.5 21:00:34 10° N 21:06:23 41° ENE 21:08:51 29° SE
Cosmos 1697 Rocket 2.8 21:03:00 10° NNW 21:08:37 73° WSW 21:11:51 26° S
Cosmos 1741 Rocket 4.1 21:05:31 10° NNW 21:10:49 66° ENE 21:13:00 35° SE
SL-16 R/B 4.3 21:09:31 10° NNE 21:12:15 13° NE 21:14:58 10° ENE
Okean-O 2.5 21:10:27 35° SSE 21:12:16 84° ENE 21:16:40 10° N
ATLAS 3B R/B 2.9 21:09:05 10° NW 21:16:52 89° ENE 21:20:47 31° SSE
CZ-4B R/B 3.9 21:19:07 35° E 21:20:10 40° ENE 21:24:36 10° N
USA 245 4.4 21:18:48 35° SE 21:21:11 61° ENE 21:27:00 10° N
Cosmos 968 Rocket 3.9 21:16:10 10° NNW 21:21:18 58° WSW 21:24:03 27° S
Cosmos 1892 Rocket 3.4 21:18:01 10° N 21:22:21 81° E 21:23:28 49° SSE
Cosmos 1455 Rocket 3.1 21:19:52 25° SSW 21:22:24 76° W 21:26:50 10° N
Cosmos 1302 Rocket 3.8 21:21:11 28° S 21:23:56 69° ESE 21:29:05 10° NNE
Cosmos 2016 Rocket 4.0 21:19:35 16° S 21:24:49 87° W 21:31:05 10° N
Cosmos 2333 Rocket 4.2 21:22:02 10° NNE 21:25:15 15° NE 21:27:39 12° ENE
BREEZE-M DEB (TANK) 4.3 21:24:03 10° WNW 21:28:00 44° SSW 21:32:22 27° SSE
CZ-4 R/B 4.2 21:31:42 10° W 21:32:00 10° W 21:32:19 10° W
Cosmos 2061 Rocket 3.9 21:29:51 34° SSE 21:32:37 68° E 21:38:49 10° NNE
CZ-4B R/B 2.9 21:33:11 51° NE 21:33:11 51° NE 21:36:01 10° N
Cosmos 1782 2.6 21:32:58 63° WSW 21:33:18 69° W 21:36:49 10° N
Cosmos 1544 Rocket 4.5 21:35:33 33° ENE 21:35:33 33° ENE 21:38:50 10° NNE
Cosmos 724 4.5 21:28:59 10° SW 21:35:01 74° WNW 21:41:00 10° NNE
SPOT 3 Rocket 3.5 21:34:29 48° SE 21:35:52 72° ENE 21:41:00 10° N
NOSS 3-3 (A) 3.5 21:34:26 41° S 21:36:01 61° ESE 21:41:41 10° NE
Cosmos 1980 Rocket 2.1 21:31:05 10° NNW 21:36:49 84° ENE 21:38:33 47° SSE
BREEZE-M DEB (TANK) 2.9 21:31:16 10° SW 21:36:17 56° SSW 21:36:17 56° SSW
Cosmos 1850 Rocket 4.4 21:39:51 10° NNW 21:44:54 57° WSW 21:46:30 39° SSW
Terra 4.1 21:46:21 10° SW 21:49:36 18° W 21:52:52 10° NW
IRS-1C Rocket 4.0 21:51:54 60° SSE 21:52:53 80° ENE 21:58:11 10° N
Milstar 3 4.0 21:46:54 10° WSW 21:53:29 34° S 21:54:31 33° S
CZ-2C R/B 4.4 21:55:17 20° N 21:55:17 20° N 21:56:19 10° N
Cosmos 1758 Rocket 4.0 21:49:53 10° N 21:53:42 47° ENE 21:53:42 47° ENE
Gbstr 26 Del rocket 3.2 21:56:10 10° NW 22:00:52 63° NNE 22:00:52 63° NNE
Cosmos 1743 4.4 21:58:48 10° NW 22:00:44 22° WNW 22:00:44 22° WNW
Cosmos 2360 Rocket 4.1 21:58:58 10° N 22:02:35 17° NE 22:04:14 15° ENE
NOSS 3-3 (C) 3.4 22:02:52 59° SSW 22:03:53 83° ESE 22:09:48 10° NE
ISS -1.5 22:03:18 10° W 22:06:11 26° NNW 22:08:14 15° NNE
Geosat 3.8 22:07:03 10° NNE 22:12:04 88° ESE 22:12:24 79° SSW
Cosmos 2237 4.1 22:06:53 10° NNW 22:12:39 74° ENE 22:13:13 68° ESE
Ariane Rocket 3.0 22:12:25 62° SW 22:12:54 67° WSW 22:17:57 10° NNW
USA 305 4.4 22:10:22 10° NNW 22:13:09 26° N 22:13:09 26° N
Meteor 2-9 4.5 22:10:49 10° N 22:16:16 79° E 22:16:32 77° ESE
SL-4 R/B 4.1 22:16:39 10° WNW 22:18:10 18° W 22:18:10 18° W
Cosmos 1602 Rocket 4.5 22:15:36 10° N 22:18:42 40° NNE 22:18:42 40° NNE
Cosmos 1437 Rocket 4.5 22:21:47 25° N 22:21:47 25° N 22:23:26 10° N
Cosmos 2219 Rocket 4.3 22:16:56 10° NNE 22:20:01 15° NE 22:21:48 13° ENE
Cosmos 2082 Rocket 3.3 22:22:24 11° SW 22:27:28 41° WNW 22:32:51 10° N
Cosmos 2369 3.6 22:22:18 10° NNW 22:28:00 73° WSW 22:28:18 72° SW
Cosmos 2151 3.8 22:25:58 10° N 22:28:56 46° NNW 22:28:56 46° NNW
Cosmos 2322 Rocket 3.5 22:25:37 10° N 22:30:27 28° NE 22:31:03 28° ENE
Okean O Rocket 4.2 22:34:46 10° WSW 22:35:57 11° W 22:37:08 10° WNW
Meteor 1-5 Rocket 4.4 22:34:39 10° N 22:40:03 60° ENE 22:40:03 60° ENE
USA 234 3.1 22:35:47 10° NE 22:42:21 74° SE 22:42:49 71° SSE
Cosmos 2278 4.1 22:44:13 10° NNW 22:49:38 54° NE 22:49:38 54° NE
COSMOS 2406 3.7 22:49:27 47° WSW 22:50:39 56° WNW 22:56:18 10° NNE
SL-16 R/B 2.3 22:51:34 10° NNW 22:56:47 73° NNE 22:56:47 73° NNE
Cosmos 2098 Rocket 4.0 23:02:09 54° NW 23:02:09 54° NW 23:06:17 10° N
Nadezhda 4 Rocket 3.8 22:56:51 10° N 23:02:51 85° NW 23:02:51 85° NW
Cosmos 2333 Rocket 2.4 23:04:37 10° NNW 23:09:39 70° NNW 23:09:39 70° NNW
Cosmos 1980 Rocket 4.5 23:17:42 10° WNW 23:19:56 12° W 23:20:18 12° W
Cosmos 2195 Rocket 4.4 23:14:52 10° N 23:20:43 79° N 23:20:43 79° N
Cosmos 2026 Rocket 4.0 23:21:16 10° N 23:27:17 78° NNE 23:27:17 78° NNE
ALOS 2 4.2 23:43:55 32° N 23:43:55 32° N 23:46:20 10° N
ARIANE 5 R/B 4.2 23:44:33 32° NNW 23:44:33 32° NNW 23:47:00 10° NNW
Cosmos 2360 Rocket 2.7 23:41:33 10° NNW 23:45:58 55° NW 23:45:58 55° NW
